Location: Kalberh�ni
(46.4610°N, 7.2453°E)
Time: 18:03:22
(UTC+00:00)

Meteor 2-1 Rocket - Pass Details

Date: 31 October 2021
Orbit: 830 x 906 km, 81.3° (Epoch: 28 November)

Event Time Altitude Azimuth Distance (km) Brightness Sun altitude
Rises 17:06:15 0° 146° (SE) 3,399 7.1 -8.9°
Reaches altitude 10° 17:09:17 10° 130° (SE) 2,458 6.3 -9.4°
Maximum altitude 17:13:10 20° 85° (E) 1,855 5.4 -10.1°
Drops below altitude 10° 17:17:03 10° 40° (NE) 2,451 6.2 -10.8°
Sets 17:20:03 0° 24° (NNE) 3,386 7.0 -11.3°
